Simultaneous Nadir Overpasses (SNOs) Predictions

Prediction of SNOs between METOP-C and LANDSAT-8 Satellite Orbit:

Table of predicted SNOs for the next 14.0 days since TLE Epoch: 10/25/2025
Index Date (METOP-C) Time (METOP-C) Lat,Lon (METOP-C) SZA (METOP-C ) Date (LANDSAT-8) Time (LANDSAT-8) Lat,Lon (LANDSAT-8) SZA (LANDSAT-8 ) Distance(km) Time Diff (sec)
1 10/27/2025 15:57:44 81.11, -20.01 96.46 10/27/2025 15:58:28 81.10, -20.00 96.48 0.48 44
2 10/27/2025 16:48:23 -81.13, 147.96 83.45 10/27/2025 16:47:54 -81.12, 147.96 83.46 0.58 29
3 10/30/2025 11:32:07 81.11, 46.51 97.41 10/30/2025 11:32:44 81.11, 46.57 97.43 0.91 37
4 10/30/2025 12:22:46 -81.13,-145.47 82.50 10/30/2025 12:22:10 -81.13,-145.44 82.51 0.53 36
5 11/02/2025 07:06:29 81.12, 113.33 98.36 11/02/2025 07:06:59 81.13, 113.26 98.37 1.19 30
6 11/02/2025 07:57:08 -81.15, -78.61 81.54 11/02/2025 07:56:25 -81.15, -78.72 81.57 1.88 43
7 11/05/2025 02:40:51 81.12, 179.69 99.22 11/05/2025 02:41:13 81.13, 179.72 99.24 0.89 22
8 11/05/2025 03:31:31 -81.14, -12.59 80.72 11/05/2025 03:30:40 -81.13, -12.61 80.75 0.67 51
9 11/07/2025 22:15:14 81.12,-114.04 100.03 11/07/2025 22:15:28 81.11,-114.05 100.03 0.51 14



Historial Predications of SNOs between METOP-C and LANDSAT-8
